#timestamp,LO_Frequency,Hit,StdDev 
1511560815.6,286046987.2,N
1511560835.4,286046986.5,N
1511560855.3,286046984.4,N
1511560875.1,286046981.5,N
1511560895.8,286046984.2,N
1511560915.7,286046982.8,N
1511560935.5,286046976.1,N
1511560955.3,286046975.8,N
1511560975.2,286046976.2,N
1511560995.9,286046970.9,N
1511561015.7,286046970.8,N
1511561035.6,286046971.0,N
1511561055.4,286046969.3,N
1511561075.2,286046966.7,N
1511561095.1,286046966.4,N
1511561096.0,286046966.4,N
1511561115.8,286046966.5,N
1511561135.6,286046973.7,N
1511561155.5,286046976.4,N
1511561175.3,286046979.1,N
1511561195.1,286046984.6,N
1511561215.8,286046995.1,N
1511561235.7,286047002.1,N
1511561255.5,286047001.3,N
1511561275.3,286047007.2,N
1511561295.2,286047007.3,N
1511561315.9,286047006.1,N
1511561335.7,286047008.7,N
1511561355.6,286047010.6,N
1511561375.4,286047013.7,N
1511561395.2,286047015.1,N
1511561415.1,286047015.2,N
1511561416.0,286047015.2,N
1511561435.8,286047015.4,N
1511561455.6,286047017.9,N
1511561475.5,286047016.7,N
1511561495.3,286047014.9,N
1511561515.1,286047019.3,N
1511561535.8,286047019.9,N
1511561555.7,286047020.0,N
1511561575.5,286047009.3,N
1511561595.3,286047013.4,N
1511561615.2,286047017.5,N
1511561635.0,286047019.3,N
1511561635.9,286047019.3,N
1511561655.7,286047027.6,N
1511561675.6,286047030.6,N
1511561695.4,286047029.2,N
1511561715.2,286047034.0,N
1511561735.1,286047033.4,N
1511561736.0,286047033.4,Y
1511561755.8,286047020.5,P
1511561775.6,286047021.7,P
1511561795.5,286047024.5,P
1511561815.3,286047022.5,Y
1511561835.1,286047006.3,P
1511561855.9,286047003.2,N
1511561875.7,286047007.0,N
1511561895.5,286047001.7,N
1511561915.4,286046997.0,N
1511561935.2,286046999.3,N
1511561955.0,286046997.2,N
1511561955.9,286046997.2,N
1511561975.8,286046996.3,N
1511561995.6,286046990.6,N
1511562015.4,286046988.8,N
1511562035.3,286046988.8,N
1511562055.1,286046988.7,N
1511562056.0,286046988.7,N
1511562075.8,286046989.7,N
1511562095.6,286046986.0,N
1511562115.5,286046991.5,N
1511562135.3,286046994.1,N
1511562155.1,286046992.2,N
1511562175.9,286046995.5,N
1511562195.7,286046993.0,N
1511562215.5,286046987.7,N
1511562235.4,286046991.9,N
1511562255.2,286046995.1,N
1511562275.0,286046993.7,N
1511562275.9,286046993.7,N
1511562295.8,286046994.6,N
1511562315.6,286046996.1,N
1511562335.4,286046995.6,N
1511562355.3,286046993.7,N
1511562375.1,286046996.8,N
1511562376.0,286046996.8,N
1511562395.8,286046996.8,N
1511562415.6,286046994.9,N
1511562435.5,286046996.2,N
1511562455.3,286046990.7,N
1511562475.1,286046983.8,Y
1511562495.9,286046984.7,P
1511562515.7,286046976.1,P
1511562535.5,286046973.7,P
1511562555.4,286046969.2,Y
1511562575.2,286046989.7,P
1511562595.0,286046985.4,P
1511562595.9,286046985.4,P
1511562615.8,286046980.9,Y
1511562635.6,286046999.5,P
1511562655.4,286047001.0,N
1511562675.3,286046996.7,N
1511562695.1,286046995.9,N
1511562715.8,286046993.5,N
1511562735.7,286046994.7,N
1511562755.5,286046994.8,N
1511562775.3,286047000.0,N
1511562795.2,286047002.3,N
1511562815.9,286046998.5,N
1511562835.7,286047004.1,N
1511562855.6,286047004.0,N
1511562875.4,286047001.6,N
1511562895.2,286047001.4,N
1511562915.0,286047002.7,N
1511562916.0,286047002.7,N
1511562935.8,286046999.5,N
1511562955.6,286046996.0,N
1511562975.4,286046997.3,N
1511562995.3,286046994.4,N
1511563015.1,286046996.9,N
1511563035.8,286046999.9,N
1511563055.7,286047003.2,N
1511563075.5,286047010.7,N
1511563095.3,286047009.1,N
1511563115.2,286047009.0,N
1511563135.9,286047007.3,N
1511563155.7,286047004.1,N
1511563175.5,286047005.9,N
1511563195.4,286047003.5,N
1511563215.2,286046997.0,N
1511563235.0,286046998.5,N
1511563235.9,286046998.5,N
1511563255.8,286046997.0,N
1511563275.6,286046993.4,N
1511563295.4,286046989.3,N
1511563315.3,286046990.9,N
1511563335.1,286046992.3,N
1511563355.8,286046991.1,N
1511563375.7,286046992.5,N
1511563395.5,286046988.3,N
1511563415.3,286046985.7,N
1511563435.2,286046982.1,N
1511563455.9,286046979.5,N
1511563475.7,286046976.5,Y
1511563495.6,286046980.0,P
1511563515.4,286046982.4,N
1511563535.2,286046984.0,N
1511563555.1,286046986.7,N
1511563556.0,286046986.7,N
1511563575.8,286046989.9,N
1511563595.6,286046989.3,N
1511563615.4,286046991.7,N
1511563635.3,286046989.9,N
1511563655.1,286046979.0,Y
1511563675.9,286046985.3,P
1511563695.7,286046986.6,P
1511563715.5,286046991.3,P
1511563735.4,286046990.6,Y
1511563755.2,286046998.8,P
1511563775.0,286046996.8,N
1511563775.9,286046996.8,N
1511563795.7,286046998.6,N
1511563815.6,286046996.8,N
1511563835.4,286046992.0,N
1511563855.2,286046996.1,N
1511563875.1,286046992.3,N
1511563876.0,286046992.3,N
1511563895.8,286046990.1,N
1511563915.6,286046992.0,N
1511563935.5,286046991.7,N
1511563955.3,286046991.5,N
1511563975.1,286046988.9,Y
1511563995.9,286046996.1,P
1511564015.7,286046991.7,P
1511564035.5,286046996.4,N
1511564055.4,286046993.5,Y
1511564075.2,286046997.7,P
1511564095.0,286046999.4,N
1511564095.9,286046999.4,N
1511564115.8,286046998.2,N
1511564135.6,286046998.7,N
1511564155.4,286046996.5,N
1511564175.3,286046999.4,N
1511564195.1,286047002.5,N
1511564196.0,286047002.5,N
1511564215.8,286047003.0,N
1511564235.7,286047000.8,N
1511564255.5,286046997.9,N
1511564275.3,286046999.8,N
1511564295.2,286047009.4,Y
1511564315.9,286047015.6,P
1511564335.7,286047017.5,N
1511564355.5,286047027.8,P
1511564375.4,286047035.3,Y
1511564395.2,286047023.5,P
